Location: Campolattaro
(41.2833°N, 14.7333°E)
Time: 20:41:16
(UTC+00:00)

Nadezhda 1 Rocket - Pass Details

Date: 19 May 2025
Orbit: 941 x 1003 km, 83.0° (Epoch: 20 June)

Event Time Altitude Azimuth Distance (km) Brightness Sun altitude
Exits shadow 19:46:04 - 187° (S) 3,410 6.5 -14.4°
Reaches altitude 10° 19:48:03 10° 188° (S) 2,653 5.9 -14.7°
Maximum altitude 19:54:07 84° 276° (W) 960 4.0 -15.5°
Drops below altitude 10° 20:00:18 10° 6° (N) 2,700 6.9 -16.3°
Sets 20:02:50 0° 7° (N) 3,659 7.6 -16.6°
